| time (UTC) | temp F | wind direction | speed MPH | gust MPH | rain 1hr in | rain 24hr in | rain mn in | humidity % | barometer mb |
| 20260505153333 | 59 | 166 | 2.0 | 4.0 | 0.00 | 1.36 | 1.36 | 71 | 1013.9 |
| 20260505152833 | 59 | 198 | 2.0 | 4.0 | 0.00 | 1.36 | 1.36 | 71 | 1013.9 |
| 20260505152617 | 59 | 108 | 1.0 | 4.0 | 0.00 | 1.36 | 1.36 | 71 | 1013.9 |
| 20260505151834 | 59 | 216 | 2.0 | 4.0 | 0.00 | 1.36 | 1.36 | 71 | 1013.9 |
| 20260505151335 | 59 | 145 | 2.0 | 4.0 | 0.00 | 1.36 | 1.36 | 71 | 1013.9 |
| 20260505150833 | 59 | 138 | 2.0 | 4.0 | 0.00 | 1.36 | 1.36 | 71 | 1013.8 |
| 20260505150335 | 60 | 194 | 2.0 | 4.0 | 0.00 | 1.36 | 1.36 | 71 | 1013.8 |
| 20260505140337 | 59 | 189 | 2.0 | 5.0 | 0.00 | 1.36 | 1.36 | 72 | 1013.8 |
| 20260505124813 | 59 | 200 | 3.0 | 7.0 | 0.00 | 1.36 | 1.36 | 72 | 1014.0 |
| 20260505124313 | 60 | 171 | 2.0 | 8.0 | 0.00 | 1.36 | 1.36 | 73 | 1014.0 |
| 20260505124118 | 60 | 197 | 3.0 | 8.0 | 0.00 | 1.36 | 1.36 | 73 | 1014.0 |
| 20260505123309 | 60 | 83 | 3.0 | 8.0 | 0.00 | 1.36 | 1.36 | 75 | 1014.0 |
| 20260505122810 | 59 | 206 | 2.0 | 6.0 | 0.00 | 1.36 | 1.36 | 76 | 1014.0 |
| 20260505122306 | 59 | 171 | 3.0 | 7.0 | 0.00 | 1.36 | 1.36 | 77 | 1014.0 |
| 20260505122047 | 59 | 185 | 3.0 | 7.0 | 0.00 | 1.36 | 1.36 | 78 | 1014.0 |
| 20260505121306 | 59 | 168 | 3.0 | 9.0 | 0.00 | 1.36 | 1.36 | 78 | 1013.9 |
| 20260505120806 | 58 | 175 | 3.0 | 9.0 | 0.00 | 1.36 | 1.36 | 78 | 1014.0 |
| 20260505120304 | 58 | 191 | 3.0 | 8.0 | 0.00 | 1.36 | 1.36 | 77 | 1014.0 |
| 20260505115804 | 58 | 139 | 3.0 | 8.0 | 0.00 | 1.36 | 1.36 | 76 | 1013.9 |
| 20260505115306 | 58 | 174 | 3.0 | 9.0 | 0.00 | 1.36 | 1.36 | 76 | 1014.0 |
| 20260505114804 | 58 | 99 | 3.0 | 9.0 | 0.00 | 1.36 | 1.36 | 76 | 1013.9 |
| 20260505114304 | 58 | 187 | 3.0 | 9.0 | 0.00 | 1.36 | 1.36 | 76 | 1013.9 |
| 20260505113804 | 58 | 83 | 2.0 | 8.0 | 0.00 | 1.36 | 1.36 | 76 | 1013.9 |
| 20260505113622 | 58 | 144 | 2.0 | 10.0 | 0.00 | 1.36 | 1.36 | 76 | 1014.0 |
| 20260505113618 | 58 | 131 | 3.0 | 10.0 | 0.00 | 1.36 | 1.36 | 76 | 1014.0 |
| 20260505112305 | 58 | 158 | 2.0 | 9.0 | 0.00 | 1.36 | 1.36 | 76 | 1014.0 |
| 20260505111803 | 58 | 109 | 2.0 | 5.0 | 0.00 | 1.36 | 1.36 | 76 | 1013.9 |
| 20260505111304 | 58 | 179 | 3.0 | 8.0 | 0.00 | 1.36 | 1.36 | 76 | 1013.9 |
| 20260505110811 | 58 | 135 | 4.0 | 10.0 | 0.00 | 1.36 | 1.36 | 74 | 1013.8 |
| 20260505110259 | 58 | 133 | 4.0 | 10.0 | 0.00 | 1.36 | 1.36 | 74 | 1013.8 |
| 20260505101755 | 59 | 156 | 2.0 | 7.0 | 0.00 | 1.36 | 1.36 | 72 | 1013.6 |
| 20260505101248 | 59 | 156 | 2.0 | 7.0 | 0.00 | 1.36 | 1.36 | 72 | 1013.6 |
| 20260505100751 | 59 | 209 | 2.0 | 5.0 | 0.00 | 1.36 | 1.36 | 72 | 1013.6 |
| 20260505100344 | 59 | 211 | 1.0 | 4.0 | 0.00 | 1.36 | 1.36 | 79 | 1013.5 |
| 20260505100324 | 59 | 211 | 1.0 | 4.0 | 0.00 | 1.36 | 1.36 | 75 | 1013.6 |
| 20260505095538 | 58 | 203 | 1.0 | 4.0 | 0.00 | 1.36 | 1.36 | 80 | 1013.5 |
| 20260505094743 | 58 | 214 | 1.0 | 4.0 | 0.00 | 1.36 | 1.36 | 80 | 1013.4 |
| 20260505094243 | 57 | 214 | 1.0 | 4.0 | 0.00 | 1.36 | 1.36 | 81 | 1013.4 |
| 20260505093743 | 57 | 326 | 1.0 | 2.0 | 0.00 | 1.36 | 1.36 | 81 | 1013.4 |
| 20260505093246 | 57 | 326 | 1.0 | 2.0 | 0.00 | 1.36 | 1.36 | 81 | 1013.4 |
| 20260505093029 | 57 | 326 | 1.0 | 3.0 | 0.00 | 1.36 | 1.36 | 81 | 1013.4 |
| 20260505092526 | 56 | 326 | 2.0 | 3.0 | 0.00 | 1.36 | 1.36 | 81 | 1013.4 |
| 20260505092036 | 56 | 309 | 1.0 | 3.0 | 0.00 | 1.36 | 1.36 | 81 | 1013.5 |
| 20260505091238 | 56 | 292 | 1.0 | 4.0 | 0.00 | 1.36 | 1.36 | 81 | 1013.5 |
| 20260505091032 | 56 | 292 | 1.0 | 4.0 | 0.00 | 1.36 | 1.36 | 81 | 1013.5 |
| 20260505090237 | 56 | 8 | 1.0 | 2.0 | 0.00 | 1.36 | 1.36 | 81 | 1013.5 |
| 20260505085735 | 56 | 8 | 1.0 | 2.0 | 0.00 | 1.36 | 1.36 | 81 | 1013.5 |
| 20260505085519 | 56 | 8 | 1.0 | 3.0 | 0.00 | 1.36 | 1.36 | 81 | 1013.4 |
| 20260505084737 | 56 | 9 | 1.0 | 3.0 | 0.00 | 1.36 | 1.36 | 81 | 1013.4 |
| 20260505084234 | 55 | 347 | 1.0 | 2.0 | 0.00 | 1.36 | 1.36 | 81 | 1013.4 |
| 20260505083733 | 55 | 347 | 1.0 | 2.0 | 0.00 | 1.36 | 1.36 | 81 | 1013.3 |
| 20260505083512 | 55 | 347 | 1.0 | 3.0 | 0.00 | 1.36 | 1.36 | 81 | 1013.3 |
| 20260505082731 | 55 | 347 | 1.0 | 3.0 | 0.00 | 1.36 | 1.36 | 81 | 1013.2 |
| 20260505082229 | 55 | 29 | 1.0 | 2.0 | 0.00 | 1.36 | 1.36 | 81 | 1013.2 |
| 20260505081737 | 55 | 29 | 0.0 | 2.0 | 0.00 | 1.36 | 1.36 | 81 | 1013.1 |
| 20260505081230 | 55 | 29 | 1.0 | 3.0 | 0.01 | 1.36 | 1.36 | 81 | 1013.0 |
| 20260505080729 | 55 | 29 | 1.0 | 3.0 | 0.01 | 1.36 | 1.36 | 81 | 1013.1 |
| 20260505080230 | 55 | 30 | 0.0 | 3.0 | 0.01 | 1.36 | 1.36 | 81 | 1013.1 |
| 20260505075727 | 54 | 147 | 0.0 | 2.0 | 0.02 | 1.35 | 1.36 | 81 | 1013.2 |
| 20260505075225 | 54 | 147 | 1.0 | 3.0 | 0.02 | 1.35 | 1.36 | 81 | 1013.3 |
| 20260505074727 | 54 | 147 | 1.0 | 3.0 | 0.02 | 1.35 | 1.36 | 81 | 1013.4 |
| 20260505074220 | 54 | 148 | 1.0 | 3.0 | 0.02 | 1.35 | 1.36 | 81 | 1013.4 |
| 20260505074005 | 54 | 148 | 1.0 | 3.0 | 0.02 | 1.35 | 1.36 | 81 | 1013.4 |
| 20260505073521 | 54 | 75 | 0.0 | 2.0 | 0.04 | 1.35 | 1.36 | 81 | 1013.4 |
| 20260505072717 | 54 | 52 | 0.0 | 2.0 | 0.06 | 1.35 | 1.36 | 81 | 1013.4 |
| 20260505072217 | 54 | 52 | 1.0 | 2.0 | 0.10 | 1.35 | 1.36 | 81 | 1013.4 |
| 20260505071711 | 54 | 52 | 1.0 | 2.0 | 0.17 | 1.35 | 1.36 | 81 | 1013.3 |
| 20260505071455 | 54 | 52 | 1.0 | 2.0 | 0.25 | 1.35 | 1.35 | 80 | 1013.2 |
| 20260505070708 | 54 | 52 | 1.0 | 3.0 | 0.38 | 1.35 | 1.35 | 80 | 1013.2 |
| 20260505070209 | 53 | 354 | 2.0 | 5.0 | 0.41 | 1.35 | 1.35 | 80 | 1013.1 |
| 20260505065948 | 53 | 284 | 2.0 | 5.0 | 0.43 | 0.93 | 1.35 | 80 | 1013.2 |
| 20260505065208 | 53 | 283 | 2.0 | 5.0 | 0.46 | 0.93 | 1.35 | 80 | 1013.2 |
| 20260505064707 | 53 | 269 | 2.0 | 5.0 | 0.48 | 0.93 | 1.35 | 80 | 1013.2 |
| 20260505064528 | 53 | 272 | 1.0 | 5.0 | 0.49 | 0.93 | 1.33 | 80 | 1013.2 |
| 20260505064521 | 53 | 280 | 1.0 | 4.0 | 0.48 | 0.93 | 1.34 | 80 | 1013.1 |
| 20260505063207 | 53 | 43 | 1.0 | 5.0 | 0.47 | 0.93 | 1.31 | 80 | 1013.3 |
| 20260505063117 | 54 | 90 | 2.0 | 8.0 | 0.28 | 1.10 | 1.09 | 80 | 1013.0 |
| 20260505063108 | 54 | 63 | 2.0 | 8.0 | 0.36 | 0.93 | 1.18 | 80 | 1013.0 |
| 20260505062747 | 54 | 61 | 2.0 | 4.0 | 0.44 | 0.93 | 1.28 | 80 | 1013.2 |
| 20260505062651 | 54 | 60 | 2.0 | 6.0 | 0.41 | 0.93 | 1.24 | 80 | 1013.1 |
| 20260505060705 | 54 | 295 | 2.0 | 3.0 | 0.18 | 0.98 | 0.97 | 80 | 1012.8 |
| 20260505060500 | 54 | 4 | 2.0 | 3.0 | 0.17 | 0.94 | 0.94 | 80 | 1012.5 |
| 20260505055654 | 54 | 8 | 2.0 | 4.0 | 0.17 | 0.91 | 0.91 | 80 | 1012.3 |
| 20260505055148 | 54 | 354 | 2.0 | 4.0 | 0.29 | 0.88 | 0.87 | 80 | 1012.2 |
| 20260505054638 | 54 | 324 | 2.0 | 3.0 | 0.29 | 0.87 | 0.87 | 80 | 1012.1 |
| 20260505054138 | 54 | 322 | 2.0 | 3.0 | 0.30 | 0.86 | 0.86 | 79 | 1012.1 |
| 20260505053638 | 54 | 354 | 1.0 | 3.0 | 0.31 | 0.85 | 0.85 | 79 | 1012.1 |
| 20260505053137 | 54 | 260 | 2.0 | 3.0 | 0.31 | 0.85 | 0.85 | 79 | 1012.0 |
| 20260505052638 | 54 | 298 | 2.0 | 5.0 | 0.32 | 0.84 | 0.84 | 79 | 1012.0 |
| 20260505052138 | 54 | 322 | 2.0 | 5.0 | 0.35 | 0.84 | 0.83 | 79 | 1012.0 |
| 20260505051633 | 54 | 314 | 2.0 | 10.0 | 0.38 | 0.83 | 0.83 | 79 | 1012.0 |
| 20260505051132 | 53 | 359 | 2.0 | 10.0 | 0.43 | 0.82 | 0.81 | 79 | 1012.1 |
| 20260505050631 | 53 | 88 | 2.0 | 5.0 | 0.40 | 0.80 | 0.79 | 79 | 1012.3 |
| 20260505050131 | 53 | 293 | 1.0 | 4.0 | 0.39 | 0.77 | 0.76 | 79 | 1012.4 |
| 20260505041633 | 53 | 303 | 2.0 | 3.0 | 0.22 | 0.45 | 0.44 | 77 | 1013.0 |
| 20260505041134 | 53 | 339 | 2.0 | 3.0 | 0.17 | 0.39 | 0.39 | 77 | 1012.9 |
| 20260505040636 | 53 | 314 | 1.0 | 3.0 | 0.17 | 0.39 | 0.39 | 77 | 1012.8 |
| 20260505040134 | 53 | 289 | 2.0 | 4.0 | 0.16 | 0.38 | 0.38 | 76 | 1012.7 |
| 20260505035633 | 53 | 321 | 2.0 | 4.0 | 0.14 | 0.36 | 0.36 | 76 | 1012.6 |
| 20260505035135 | 53 | 295 | 3.0 | 5.0 | 0.14 | 0.35 | 0.35 | 76 | 1012.7 |
| 20260505034629 | 53 | 21 | 3.0 | 5.0 | 0.12 | 0.31 | 0.31 | 76 | 1013.0 |
| 20260505034136 | 53 | 331 | 3.0 | 8.0 | 0.10 | 0.28 | 0.28 | 76 | 1013.1 |
| 20260505033628 | 53 | 343 | 3.0 | 8.0 | 0.10 | 0.27 | 0.26 | 75 | 1013.2 |
| 20260505033127 | 53 | 299 | 3.0 | 4.0 | 0.10 | 0.24 | 0.24 | 75 | 1013.3 |
| 20260505032625 | 53 | 354 | 2.0 | 4.0 | 0.09 | 0.23 | 0.23 | 75 | 1013.3 |
| 20260505032124 | 53 | 354 | 2.0 | 4.0 | 0.11 | 0.23 | 0.23 | 75 | 1013.3 |
| 20260505031625 | 53 | 19 | 2.0 | 4.0 | 0.12 | 0.23 | 0.23 | 75 | 1013.4 |
| 20260505031123 | 53 | 4 | 2.0 | 3.0 | 0.13 | 0.23 | 0.23 | 75 | 1013.4 |
| 20260505030624 | 53 | 4 | 2.0 | 3.0 | 0.14 | 0.23 | 0.23 | 75 | 1013.6 |
| 20260505030122 | 53 | 20 | 1.0 | 3.0 | 0.14 | 0.22 | 0.22 | 75 | 1013.6 |
| 20260505025622 | 53 | 354 | 1.0 | 3.0 | 0.15 | 0.22 | 0.22 | 74 | 1013.7 |
| 20260505025113 | 53 | 40 | 1.0 | 3.0 | 0.15 | 0.21 | 0.21 | 75 | 1013.8 |
| 20260505024613 | 53 | 51 | 1.0 | 3.0 | 0.13 | 0.20 | 0.20 | 74 | 1013.9 |
| 20260505024113 | 53 | 22 | 1.0 | 2.0 | 0.13 | 0.18 | 0.17 | 74 | 1014.1 |
| 20260505023612 | 53 | 359 | 1.0 | 2.0 | 0.11 | 0.17 | 0.16 | 74 | 1014.1 |
| 20260505023112 | 53 | 359 | 2.0 | 3.0 | 0.09 | 0.14 | 0.14 | 74 | 1014.1 |
| 20260505022608 | 53 | 4 | 1.0 | 4.0 | 0.08 | 0.13 | 0.13 | 74 | 1014.3 |
| 20260505022349 | 53 | 4 | 2.0 | 4.0 | 0.08 | 0.12 | 0.12 | 74 | 1014.3 |
| 20260505021611 | 54 | 318 | 1.0 | 4.0 | 0.08 | 0.11 | 0.11 | 74 | 1014.4 |
| 20260505021109 | 54 | 338 | 1.0 | 3.0 | 0.07 | 0.09 | 0.09 | 74 | 1014.5 |
| 20260505020609 | 54 | 338 | 2.0 | 4.0 | 0.07 | 0.09 | 0.09 | 74 | 1014.5 |
| 20260505020356 | 54 | 319 | 2.0 | 4.0 | 0.07 | 0.08 | 0.08 | 74 | 1014.5 |
| 20260505015612 | 54 | 354 | 2.0 | 3.0 | 0.06 | 0.07 | 0.07 | 74 | 1014.6 |
| 20260505015112 | 54 | 316 | 2.0 | 3.0 | 0.06 | 0.06 | 0.06 | 74 | 1014.6 |
| 20260505014612 | 54 | 354 | 2.0 | 3.0 | 0.06 | 0.06 | 0.06 | 74 | 1014.7 |
| 20260505014111 | 54 | 22 | 2.0 | 4.0 | 0.06 | 0.06 | 0.06 | 74 | 1014.7 |
| 20260505013615 | 54 | 354 | 2.0 | 5.0 | 0.06 | 0.06 | 0.06 | 75 | 1014.8 |
| 20260505013111 | 54 | 8 | 3.0 | 5.0 | 0.05 | 0.05 | 0.05 | 75 | 1014.9 |
| 20260505012814 | 55 | 331 | 2.0 | 5.0 | 0.04 | 0.04 | 0.04 | 76 | 1015.1 |
| 20260505012807 | 55 | 341 | 2.0 | 4.0 | 0.03 | 0.03 | 0.03 | 77 | 1015.2 |
| 20260505012800 | 56 | 292 | 2.0 | 4.0 | 0.02 | 0.02 | 0.02 | 76 | 1015.4 |
| 20260505012736 | 55 | 323 | 3.0 | 5.0 | 0.05 | 0.05 | 0.05 | 76 | 1015.0 |
| 20260505011939 | 55 | 52 | 2.0 | 4.0 | 0.02 | 0.02 | 0.02 | 76 | 1015.3 |
| 20260505010114 | 56 | 336 | 1.0 | 3.0 | 0.01 | 0.01 | 0.01 | 75 | 1015.5 |
| 20260505005847 | 56 | 332 | 2.0 | 3.0 | 0.01 | 0.01 | 0.01 | 75 | 1015.6 |
| 20260505005111 | 57 | 338 | 1.0 | 3.0 | 0.00 | 0.00 | 0.00 | 74 | 1015.7 |
| 20260505004606 | 57 | 327 | 1.0 | 3.0 | 0.00 | 0.00 | 0.00 | 73 | 1015.9 |
| 20260505004110 | 57 | 328 | 1.0 | 3.0 | 0.00 | 0.00 | 0.00 | 73 | 1015.9 |
| 20260505003608 | 57 | 329 | 1.0 | 3.0 | 0.00 | 0.00 | 0.00 | 73 | 1016.0 |
| 20260505003343 | 58 | 316 | 1.0 | 3.0 | 0.00 | 0.00 | 0.00 | 71 | 1016.0 |
| 20260505002606 | 58 | 315 | 1.0 | 3.0 | 0.00 | 0.00 | 0.00 | 70 | 1016.0 |
| 20260505002105 | 58 | 40 | 1.0 | 4.0 | 0.00 | 0.00 | 0.00 | 69 | 1016.0 |
| 20260505001609 | 58 | 40 | 1.0 | 4.0 | 0.00 | 0.00 | 0.00 | 69 | 1016.1 |
| 20260505001106 | 58 | 218 | 0.0 | 3.0 | 0.00 | 0.00 | 0.00 | 69 | 1016.2 |
| 20260505000607 | 58 | 349 | 1.0 | 3.0 | 0.00 | 0.00 | 0.00 | 69 | 1016.3 |
| 20260505000111 | 58 | 312 | 1.0 | 3.0 | 0.00 | 0.00 | 0.00 | 69 | 1016.3 |
| 20260504235610 | 58 | 77 | 1.0 | 3.0 | 0.00 | 0.00 | 0.00 | 69 | 1016.5 |
| 20260504235341 | 58 | 4 | 1.0 | 4.0 | 0.00 | 0.00 | 0.00 | 69 | 1016.6 |
| 20260504234845 | 58 | 48 | 1.0 | 4.0 | 0.00 | 0.00 | 0.00 | 69 | 1016.6 |
| 20260504234353 | 58 | 287 | 1.0 | 4.0 | 0.00 | 0.00 | 0.00 | 70 | 1016.7 |
| 20260504233641 | 58 | 12 | 1.0 | 3.0 | 0.00 | 0.00 | 0.00 | 70 | 1016.9 |
| 20260504233624 | 58 | 10 | 1.0 | 2.0 | 0.00 | 0.00 | 0.00 | 70 | 1016.9 |
| 20260504232621 | 58 | 10 | 1.0 | 3.0 | 0.00 | 0.00 | 0.00 | 70 | 1017.0 |
| 20260504232349 | 58 | 214 | 1.0 | 4.0 | 0.00 | 0.00 | 0.00 | 70 | 1017.0 |
| 20260504231844 | 58 | 188 | 1.0 | 4.0 | 0.00 | 0.00 | 0.00 | 69 | 1017.2 |
| 20260504231119 | 58 | 345 | 1.0 | 3.0 | 0.00 | 0.00 | 0.00 | 70 | 1017.3 |
| 20260504230607 | 58 | 79 | 1.0 | 2.0 | 0.00 | 0.00 | 0.00 | 70 | 1017.3 |
| 20260504230107 | 58 | 8 | 1.0 | 3.0 | 0.00 | 0.00 | 0.00 | 70 | 1017.4 |
| 20260504225607 | 58 | 359 | 1.0 | 3.0 | 0.00 | 0.00 | 0.00 | 69 | 1017.5 |
| 20260504225109 | 58 | 27 | 1.0 | 4.0 | 0.00 | 0.00 | 0.00 | 69 | 1017.5 |
| 20260504224851 | 58 | 22 | 1.0 | 4.0 | 0.00 | 0.00 | 0.00 | 69 | 1017.6 |
| 20260504224105 | 58 | 61 | 1.0 | 3.0 | 0.00 | 0.00 | 0.00 | 69 | 1017.6 |
| 20260504223603 | 58 | 25 | 1.0 | 2.0 | 0.00 | 0.00 | 0.00 | 70 | 1017.6 |
| 20260504223100 | 58 | 25 | 1.0 | 4.0 | 0.00 | 0.00 | 0.00 | 69 | 1017.7 |
| 20260504222558 | 58 | 25 | 1.0 | 4.0 | 0.00 | 0.00 | 0.00 | 70 | 1017.8 |
| 20260504222055 | 58 | 226 | 0.0 | 3.0 | 0.00 | 0.00 | 0.00 | 70 | 1017.9 |
| 20260504221555 | 58 | 225 | 1.0 | 3.0 | 0.00 | 0.00 | 0.00 | 70 | 1018.0 |
| 20260504221344 | 58 | 341 | 1.0 | 2.0 | 0.00 | 0.00 | 0.00 | 70 | 1018.1 |
| 20260504220555 | 58 | 246 | 1.0 | 3.0 | 0.00 | 0.00 | 0.00 | 70 | 1018.2 |
| 20260504220048 | 58 | 246 | 1.0 | 3.0 | 0.00 | 0.00 | 0.00 | 70 | 1018.3 |
| 20260504215541 | 58 | 245 | 1.0 | 4.0 | 0.00 | 0.00 | 0.00 | 70 | 1018.3 |
| 20260504215038 | 58 | 323 | 1.0 | 4.0 | 0.00 | 0.00 | 0.00 | 70 | 1018.5 |
| 20260504214537 | 58 | 20 | 1.0 | 4.0 | 0.00 | 0.00 | 0.00 | 71 | 1018.5 |
| 20260504214040 | 58 | 4 | 1.0 | 3.0 | 0.00 | 0.00 | 0.00 | 70 | 1018.5 |
| 20260504213537 | 58 | 4 | 1.0 | 3.0 | 0.00 | 0.00 | 0.00 | 71 | 1018.6 |
| 20260504213036 | 58 | 4 | 1.0 | 3.0 | 0.00 | 0.00 | 0.00 | 70 | 1018.6 |
| 20260504212535 | 58 | 354 | 1.0 | 3.0 | 0.00 | 0.00 | 0.00 | 71 | 1018.6 |
| 20260504212034 | 58 | 243 | 1.0 | 3.0 | 0.00 | 0.00 | 0.00 | 70 | 1018.8 |
| 20260504211533 | 58 | 243 | 2.0 | 3.0 | 0.00 | 0.00 | 0.00 | 70 | 1018.8 |
| 20260504211036 | 57 | 23 | 1.0 | 3.0 | 0.00 | 0.00 | 0.00 | 71 | 1018.8 |
| 20260504210533 | 57 | 299 | 2.0 | 3.0 | 0.00 | 0.00 | 0.00 | 71 | 1018.8 |
| 20260504210137 | 57 | 299 | 1.0 | 2.0 | 0.00 | 0.00 | 0.00 | 72 | 1018.7 |
| 20260504210116 | 57 | 299 | 1.0 | 3.0 | 0.00 | 0.00 | 0.00 | 72 | 1018.8 |
| 20260504205035 | 57 | 299 | 1.0 | 2.0 | 0.00 | 0.00 | 0.00 | 72 | 1018.7 |
| 20260504204527 | 57 | 299 | 1.0 | 2.0 | 0.00 | 0.00 | 0.00 | 72 | 1018.7 |
| 20260504204024 | 57 | 299 | 1.0 | 2.0 | 0.00 | 0.00 | 0.00 | 72 | 1018.7 |
| 20260504203756 | 57 | 299 | 1.0 | 2.0 | 0.00 | 0.00 | 0.00 | 73 | 1018.7 |
| 20260504203011 | 57 | 299 | 1.0 | 2.0 | 0.00 | 0.00 | 0.00 | 73 | 1018.7 |
| 20260504202511 | 57 | 298 | 1.0 | 3.0 | 0.00 | 0.00 | 0.00 | 74 | 1018.7 |
| 20260504202012 | 57 | 298 | 1.0 | 3.0 | 0.00 | 0.00 | 0.00 | 74 | 1018.8 |
| 20260504201511 | 57 | 297 | 1.0 | 2.0 | 0.00 | 0.00 | 0.00 | 75 | 1018.7 |
| 20260504201009 | 57 | 297 | 2.0 | 3.0 | 0.00 | 0.00 | 0.00 | 75 | 1018.8 |
| 20260504200509 | 58 | 297 | 1.0 | 3.0 | 0.00 | 0.00 | 0.00 | 75 | 1018.8 |
| 20260504200010 | 58 | 297 | 1.0 | 2.0 | 0.00 | 0.00 | 0.00 | 75 | 1018.7 |
| 20260504195514 | 58 | 297 | 1.0 | 2.0 | 0.00 | 0.00 | 0.00 | 75 | 1018.8 |
| 20260504195258 | 58 | 297 | 1.0 | 2.0 | 0.00 | 0.00 | 0.00 | 75 | 1018.8 |
| 20260504194509 | 58 | 241 | 1.0 | 2.0 | 0.00 | 0.00 | 0.00 | 75 | 1018.7 |
| 20260504194007 | 58 | 241 | 0.0 | 1.0 | 0.00 | 0.00 | 0.00 | 75 | 1018.8 |
| 20260504193507 | 58 | 241 | 1.0 | 2.0 | 0.00 | 0.00 | 0.00 | 75 | 1018.7 |
| 20260504193007 | 58 | 241 | 1.0 | 2.0 | 0.00 | 0.00 | 0.00 | 75 | 1018.8 |
| 20260504192507 | 58 | 241 | 0.0 | 1.0 | 0.00 | 0.00 | 0.00 | 76 | 1018.7 |
| 20260504192006 | 58 | 241 | 0.0 | 2.0 | 0.00 | 0.00 | 0.00 | 76 | 1018.8 |
| 20260504191508 | 58 | 241 | 1.0 | 2.0 | 0.00 | 0.00 | 0.00 | 76 | 1018.7 |
| 20260504191010 | 58 | 241 | 1.0 | 3.0 | 0.00 | 0.00 | 0.00 | 76 | 1018.8 |
| 20260504190506 | 58 | 241 | 1.0 | 4.0 | 0.00 | 0.00 | 0.00 | 76 | 1018.8 |
| 20260504190007 | 58 | 266 | 1.0 | 4.0 | 0.00 | 0.00 | 0.00 | 76 | 1018.8 |
| 20260504185505 | 58 | 300 | 1.0 | 4.0 | 0.00 | 0.00 | 0.00 | 76 | 1018.8 |
| 20260504185005 | 58 | 233 | 2.0 | 6.0 | 0.00 | 0.00 | 0.00 | 76 | 1018.7 |
| 20260504184505 | 58 | 268 | 1.0 | 6.0 | 0.00 | 0.00 | 0.00 | 76 | 1018.7 |
| 20260504184006 | 58 | 205 | 1.0 | 4.0 | 0.00 | 0.00 | 0.00 | 76 | 1018.8 |
| 20260504183507 | 58 | 297 | 1.0 | 4.0 | 0.00 | 0.00 | 0.00 | 76 | 1018.7 |
| 20260504183249 | 58 | 16 | 1.0 | 6.0 | 0.00 | 0.00 | 0.00 | 77 | 1018.7 |
| 20260504182508 | 58 | 193 | 1.0 | 6.0 | 0.00 | 0.00 | 0.00 | 77 | 1018.6 |
| 20260504182009 | 58 | 278 | 1.0 | 4.0 | 0.00 | 0.00 | 0.00 | 77 | 1018.6 |
| 20260504181507 | 58 | 286 | 1.0 | 3.0 | 0.00 | 0.00 | 0.00 | 77 | 1018.4 |
| 20260504181010 | 58 | 4 | 1.0 | 3.0 | 0.00 | 0.00 | 0.00 | 77 | 1018.4 |
| 20260504180507 | 58 | 237 | 1.0 | 4.0 | 0.00 | 0.00 | 0.00 | 77 | 1018.4 |
| 20260504180009 | 58 | 162 | 2.0 | 4.0 | 0.00 | 0.00 | 0.00 | 77 | 1018.4 |
| 20260504175507 | 58 | 118 | 2.0 | 7.0 | 0.00 | 0.00 | 0.00 | 76 | 1018.4 |
| 20260504175007 | 58 | 263 | 1.0 | 7.0 | 0.00 | 0.00 | 0.00 | 76 | 1018.4 |
| 20260504174743 | 58 | 200 | 1.0 | 4.0 | 0.00 | 0.00 | 0.00 | 76 | 1018.5 |
| 20260504174004 | 58 | 237 | 2.0 | 6.0 | 0.00 | 0.00 | 0.00 | 76 | 1018.5 |
| 20260504173505 | 58 | 222 | 2.0 | 6.0 | 0.00 | 0.00 | 0.00 | 76 | 1018.5 |
| 20260504173331 | 58 | 169 | 1.0 | 6.0 | 0.00 | 0.00 | 0.00 | 75 | 1018.5 |
| 20260504173322 | 58 | 253 | 2.0 | 6.0 | 0.00 | 0.00 | 0.00 | 76 | 1018.4 |
| 20260504172008 | 58 | 276 | 1.0 | 5.0 | 0.00 | 0.00 | 0.00 | 75 | 1018.5 |
| 20260504171504 | 58 | 288 | 2.0 | 5.0 | 0.00 | 0.00 | 0.00 | 74 | 1018.5 |
| 20260504171005 | 59 | 208 | 1.0 | 3.0 | 0.00 | 0.00 | 0.00 | 74 | 1018.6 |
| 20260504170519 | 59 | 274 | 1.0 | 4.0 | 0.00 | 0.00 | 0.00 | 75 | 1018.6 |
| 20260504160257 | 61 | 222 | 1.0 | 4.0 | 0.00 | 0.00 | 0.00 | 73 | 1018.7 |